Track ORBCOMM FM 18 now! 10-day predictions ORBCOMM FM 18 is classified as:
1 25414U 98046B 24325.93592958 .00003053 00000-0 10600-2 0 9999 2 25414 44.9928 82.5808 0004758 287.2291 72.8036 14.37346956374446